Regional Weather Roundup
Issued by NWS Kansas City/Pleasant Hill, MO

Home | Current Version | Previous Version | Graphics & Text | Print | Product List | Glossary Off
Versions: 1 2 3 4 5 6 7 8 9 10 11 12 13 14 15 16 17 18 19 20 21 22 23 24 25 26 27 28 29 30 31 32 33 34 35 36 37 38 39 40 41 42 43 44 45 46 47 48 49 50

964
ASUS43 KEAX 192010
RWREAX

WEATHER ROUNDUP FOR EASTERN KANSAS AND NORTHWEST MISSOURI
NATIONAL WEATHER SERVICE KANSAS CITY/PLEASANT HILL MO
200 PM CST SUN FEB 19 2017

KSZ040-057-103>105-MOZ028-029-037-043-192100-
...KANSAS CITY METROPOLITAN AREA...

CITY           SKY/WX    TMP DP  RH WIND       PRES   REMARKS
K.C. INTL      PTSUNNY   72  53  51 S15G21    29.90F
K.C. DOWNTOWN  SUNNY     73  53  49 S9        29.89F
LEES SUMMIT    SUNNY     72  54  53 S9        29.92F
OLATHE - IXD   SUNNY     72  54  53 SE18      29.91F
OLATHE - OJC   SUNNY     71  55  56 S12G22    29.91F
LAWRENCE       SUNNY     72  55  55 SE16G23   29.89F

$$

MOZ001>008-011>017-020>025-030>033-038>040-044>046-053-054-192100-
...NORTHERN AND CENTRAL MISSOURI...

CITY           SKY/WX    TMP DP  RH WIND       PRES   REMARKS
ST. JOSEPH     MOSUNNY   71  53  52 S12G22    29.89F
WARRENSBURG    SUNNY     73  46  38 SE12      29.93F
WHITEMAN AFB   SUNNY     75  47  36 S13       29.93F
CLINTON        SUNNY     75  54  46 S10G16    29.94F
SEDALIA        SUNNY     76  47  35 SE15G21   29.96F
WARSAW         NOT AVBL
CHILLICOTHE      N/A     72  51  47 S9G21     29.94F
KIRKSVILLE     MOSUNNY   72  48  42 S10       29.97F

$$

MOZ041-047>049-056>058-063>065-088>090-097-192100-
...EASTERN AND SOUTHERN MISSOURI...

CITY           SKY/WX    TMP DP  RH WIND       PRES   REMARKS
ST. LOUIS INTL MOSUNNY   71  51  49 VRB7      30.04S
SPIRIT OF STL  PTSUNNY   73  47  39 S7        30.02S
COLUMBIA       SUNNY     72  49  44 S10       29.98F
JEFFERSON CITY SUNNY     74  49  41 SE10      29.97F
ROLLA          SUNNY     75  46  35 S12       29.98F
OSAGE BEACH    SUNNY     76  47  35 S9G21     29.97F
SPRINGFIELD    SUNNY     71  56  58 S13       29.96F
BRANSON        PTSUNNY   73  57  56 SE14      29.99F
JOPLIN         SUNNY     74  56  53 S9        29.94F
WEST PLAINS    CLOUDY    64  56  75 S9        30.06F

$$

IAZ060-094-KSZ022-034>040-054-083-096-NEZ052-066-093-192100-
...KANSAS...SOUTHEAST NEBRASKA AND IOWA...

CITY           SKY/WX    TMP DP  RH WIND       PRES   REMARKS
TOPEKA         MOSUNNY   68  55  63 S14G20    29.88F
MANHATTAN      CLOUDY    61  53  75 S14G21    29.87F
EMPORIA        CLOUDY    58  54  86 S14       29.90F
CHANUTE        SUNNY     70  55  59 S15       29.92F
WICHITA        CLOUDY    61  55  81 S14       29.86F
OMAHA          CLOUDY    68  49  50 SE23      29.83S
LINCOLN        MOSUNNY   72  49  44 S23       29.80F
FALLS CITY     CLOUDY    70  53  54 S16G24    29.86F
LAMONI         MOSUNNY   70  50  49 SE16      29.90F
DES MOINES     CLOUDY    72  46  39 S21       29.89F

$$





USA.gov is the U.S. government's official web portal to all federal, state and local government web resources and services.